Retour au catalogue

ARIANE 3 DEB

ActifGTO
NORAD 27027·DEBRIS·🇫🇷 France

Lancé Sep 8, 1988 depuis Guiana Space Centre

Loading…

TLE

PériméSource: Space-Track

Époque: Sep 13, 2026, 03:39 UTC

1 27027U 88081K   26256.15277126 -.00000205  00000-0 -28486-3 0  9995
2 27027   8.2941 266.8738 7108556  94.9366 352.0860  2.21370590221191

Suivez ARIANE 3 DEB en temps réel avec AllMySat

Download on the App Store